Location: *
(46.1333°S, 161.2167°W)
Time: 03:31:44
(UTC+00:00)

Cosmos 1898 Rocket - Pass Details

Date: 15 July 2020
Orbit: 754 x 783 km, 74.0° (Epoch: 10 August)

Event Time Altitude Azimuth Distance (km) Brightness Sun altitude
Exits shadow 15:45:47 77° 325° (NW) 815 3.4 -26.3°
Drops below altitude 10° 15:50:53 10° 15° (NNE) 2,344 6.2 -25.5°
Sets 15:53:15 0° 16° (NNE) 3,266 7.0 -25.1°
